Time,TemperatureF,DewpointF,PressureIn,WindDirection,WindDirectionDegrees,WindSpeedMPH,WindSpeedGustMPH,Humidity,HourlyPrecipIn,Conditions,Clouds,dailyrainin,SoftwareType,DateUTC
2013-02-07 00:00:00,25.6,10.0,30.33,NNE,14,0.0,0.0,51,0.00,,,0.00,oem by Ross Wheeler,2013-02-07 05:00:00,
2013-02-07 00:05:00,25.5,9.0,30.33,NNE,14,0.0,0.0,50,0.00,,,0.00,oem by Ross Wheeler,2013-02-07 05:05:00,
2013-02-07 00:15:00,25.2,10.0,30.33,NNE,14,0.0,0.0,52,0.00,,,0.00,oem by Ross Wheeler,2013-02-07 05:15:00,
2013-02-07 00:25:00,24.8,12.0,30.34,NNE,14,0.0,0.0,58,0.00,,,0.00,oem by Ross Wheeler,2013-02-07 05:25:00,
2013-02-07 00:30:00,24.6,12.0,30.34,NNE,14,0.0,0.0,59,0.00,,,0.00,oem by Ross Wheeler,2013-02-07 05:30:00,
2013-02-07 00:40:00,24.2,10.0,30.33,NNE,14,0.0,0.0,56,0.00,,,0.00,oem by Ross Wheeler,2013-02-07 05:40:00,
2013-02-07 00:46:00,24.0,11.0,30.33,NNE,14,0.0,0.0,58,0.00,,,0.00,oem by Ross Wheeler,2013-02-07 05:46:00,
2013-02-07 00:55:00,23.9,12.0,30.34,NNE,14,0.0,0.0,61,0.00,,,0.00,oem by Ross Wheeler,2013-02-07 05:55:00,
2013-02-07 01:00:00,23.6,11.0,30.34,NNE,14,0.0,0.0,59,0.00,,,0.00,oem by Ross Wheeler,2013-02-07 06:00:00,
2013-02-07 01:10:00,23.4,12.0,30.35,NNE,14,0.0,0.0,61,0.00,,,0.00,oem by Ross Wheeler,2013-02-07 06:10:00,
2013-02-07 01:15:00,23.4,12.0,30.35,NNE,14,0.0,0.0,61,0.00,,,0.00,oem by Ross Wheeler,2013-02-07 06:15:00,
2013-02-07 01:25:00,23.3,11.0,30.35,NNE,14,1.0,0.0,60,0.00,,,0.00,oem by Ross Wheeler,2013-02-07 06:25:00,
2013-02-07 01:30:00,23.4,11.0,30.35,NNE,14,2.0,0.0,59,0.00,,,0.00,oem by Ross Wheeler,2013-02-07 06:30:00,
2013-02-07 01:40:00,23.4,10.0,30.35,NNE,14,0.0,0.0,58,0.00,,,0.00,oem by Ross Wheeler,2013-02-07 06:40:00,
2013-02-07 01:45:00,23.4,10.0,30.35,NNE,14,1.0,0.0,57,0.00,,,0.00,oem by Ross Wheeler,2013-02-07 06:45:00,
2013-02-07 01:55:00,23.3,10.0,30.35,NNE,14,0.0,0.0,56,0.00,,,0.00,oem by Ross Wheeler,2013-02-07 06:55:00,
2013-02-07 02:00:00,23.1,10.0,30.35,NNE,14,0.0,0.0,57,0.00,,,0.00,oem by Ross Wheeler,2013-02-07 07:00:00,
2013-02-07 02:10:00,23.1,11.0,30.35,NNE,14,0.0,0.0,59,0.00,,,0.00,oem by Ross Wheeler,2013-02-07 07:10:00,
2013-02-07 02:15:00,23.1,11.0,30.35,NNE,14,0.0,0.0,60,0.00,,,0.00,oem by Ross Wheeler,2013-02-07 07:15:00,
2013-02-07 02:25:00,23.0,10.0,30.36,NNE,14,0.0,0.0,57,0.00,,,0.00,oem by Ross Wheeler,2013-02-07 07:25:00,
2013-02-07 02:30:00,23.0,10.0,30.36,NNE,14,0.0,0.0,57,0.00,,,0.00,oem by Ross Wheeler,2013-02-07 07:30:00,
2013-02-07 02:40:00,23.0,10.0,30.36,NNE,14,0.0,0.0,58,0.00,,,0.00,oem by Ross Wheeler,2013-02-07 07:40:00,
2013-02-07 02:45:00,23.0,10.0,30.36,NNE,14,0.0,0.0,57,0.00,,,0.00,oem by Ross Wheeler,2013-02-07 07:45:00,
2013-02-07 02:55:00,22.8,10.0,30.37,NNE,14,0.0,0.0,58,0.00,,,0.00,oem by Ross Wheeler,2013-02-07 07:55:00,
2013-02-07 03:00:00,22.7,10.0,30.37,NNE,14,0.0,0.0,59,0.00,,,0.00,oem by Ross Wheeler,2013-02-07 08:00:00,
2013-02-07 03:10:00,22.7,11.0,30.37,NNE,14,0.0,0.0,62,0.00,,,0.00,oem by Ross Wheeler,2013-02-07 08:10:00,
2013-02-07 03:15:00,22.7,11.0,30.37,NNE,14,0.0,0.0,62,0.00,,,0.00,oem by Ross Wheeler,2013-02-07 08:15:00,
2013-02-07 03:25:00,22.5,12.0,30.37,NNE,14,0.0,0.0,63,0.00,,,0.00,oem by Ross Wheeler,2013-02-07 08:25:00,
2013-02-07 03:30:00,22.4,11.0,30.37,NNE,14,0.0,0.0,63,0.00,,,0.00,oem by Ross Wheeler,2013-02-07 08:30:00,
2013-02-07 03:40:00,22.4,10.0,30.38,NNE,14,0.0,0.0,59,0.00,,,0.00,oem by Ross Wheeler,2013-02-07 08:40:00,
2013-02-07 03:45:00,22.5,10.0,30.38,NNE,14,0.0,0.0,58,0.00,,,0.00,oem by Ross Wheeler,2013-02-07 08:45:00,
2013-02-07 03:55:00,22.5,11.0,30.38,NNE,14,0.0,0.0,61,0.00,,,0.00,oem by Ross Wheeler,2013-02-07 08:55:00,
2013-02-07 04:00:00,22.4,11.0,30.38,NNE,14,0.0,0.0,61,0.00,,,0.00,oem by Ross Wheeler,2013-02-07 09:00:00,
2013-02-07 04:10:00,22.2,11.0,30.39,NNE,14,0.0,0.0,61,0.00,,,0.00,oem by Ross Wheeler,2013-02-07 09:10:00,
2013-02-07 04:15:00,22.1,10.0,30.39,NNE,14,0.0,0.0,59,0.00,,,0.00,oem by Ross Wheeler,2013-02-07 09:15:00,
2013-02-07 04:25:00,22.2,9.0,30.39,NNE,14,0.0,0.0,58,0.00,,,0.00,oem by Ross Wheeler,2013-02-07 09:25:00,
2013-02-07 04:30:00,22.2,10.0,30.39,NNE,14,0.0,0.0,60,0.00,,,0.00,oem by Ross Wheeler,2013-02-07 09:30:00,
2013-02-07 04:40:00,22.1,11.0,30.40,NNE,14,0.0,0.0,63,0.00,,,0.00,oem by Ross Wheeler,2013-02-07 09:40:00,
2013-02-07 04:45:00,21.9,11.0,30.40,NNE,14,0.0,0.0,63,0.00,,,0.00,oem by Ross Wheeler,2013-02-07 09:45:00,
2013-02-07 04:55:00,21.7,11.0,30.41,NNE,14,0.0,0.0,64,0.00,,,0.00,oem by Ross Wheeler,2013-02-07 09:55:00,
2013-02-07 05:00:00,21.6,11.0,30.41,NNE,14,0.0,0.0,65,0.00,,,0.00,oem by Ross Wheeler,2013-02-07 10:00:00,
2013-02-07 05:10:00,21.4,11.0,30.41,NNE,14,0.0,0.0,65,0.00,,,0.00,oem by Ross Wheeler,2013-02-07 10:10:00,
2013-02-07 05:15:00,21.6,12.0,30.41,NNE,14,0.0,0.0,67,0.00,,,0.00,oem by Ross Wheeler,2013-02-07 10:15:00,
2013-02-07 05:25:00,21.6,12.0,30.41,NNE,14,0.0,0.0,67,0.00,,,0.00,oem by Ross Wheeler,2013-02-07 10:25:00,
2013-02-07 05:30:00,21.6,12.0,30.41,NNE,14,0.0,0.0,66,0.00,,,0.00,oem by Ross Wheeler,2013-02-07 10:30:00,
2013-02-07 05:40:00,21.6,12.0,30.41,NNE,14,0.0,0.0,67,0.00,,,0.00,oem by Ross Wheeler,2013-02-07 10:40:00,
2013-02-07 05:45:00,21.6,13.0,30.41,NNE,14,0.0,0.0,68,0.00,,,0.00,oem by Ross Wheeler,2013-02-07 10:45:00,
2013-02-07 05:55:00,21.4,12.0,30.41,NNE,14,0.0,0.0,67,0.00,,,0.00,oem by Ross Wheeler,2013-02-07 10:55:00,
2013-02-07 06:00:00,21.4,12.0,30.41,NNE,14,0.0,0.0,68,0.00,,,0.00,oem by Ross Wheeler,2013-02-07 11:00:00,
2013-02-07 06:10:00,21.4,12.0,30.40,NNE,14,0.0,0.0,66,0.00,,,0.00,oem by Ross Wheeler,2013-02-07 11:10:00,
2013-02-07 06:15:00,21.6,12.0,30.40,NNE,14,0.0,0.0,66,0.00,,,0.00,oem by Ross Wheeler,2013-02-07 11:15:00,
2013-02-07 06:25:00,21.9,12.0,30.41,NNE,14,0.0,0.0,67,0.00,,,0.00,oem by Ross Wheeler,2013-02-07 11:25:00,
2013-02-07 06:30:00,22.2,13.0,30.41,NNE,14,0.0,0.0,67,0.00,,,0.00,oem by Ross Wheeler,2013-02-07 11:30:00,
2013-02-07 06:40:00,22.5,13.0,30.42,NNE,14,0.0,0.0,66,0.00,,,0.00,oem by Ross Wheeler,2013-02-07 11:40:00,
2013-02-07 06:45:00,22.7,13.0,30.42,NNE,14,0.0,0.0,66,0.00,,,0.00,oem by Ross Wheeler,2013-02-07 11:45:00,
2013-02-07 06:55:00,22.8,12.0,30.43,NNE,14,0.0,0.0,64,0.00,,,0.00,oem by Ross Wheeler,2013-02-07 11:55:00,
2013-02-07 07:00:00,23.0,12.0,30.43,NNE,14,0.0,0.0,63,0.00,,,0.00,oem by Ross Wheeler,2013-02-07 12:00:00,
2013-02-07 07:10:00,23.1,13.0,30.44,NNE,14,0.0,0.0,64,0.00,,,0.00,oem by Ross Wheeler,2013-02-07 12:10:00,
2013-02-07 07:15:00,23.1,12.0,30.44,NNE,14,0.0,0.0,63,0.00,,,0.00,oem by Ross Wheeler,2013-02-07 12:15:00,
2013-02-07 07:25:00,23.4,13.0,30.45,NNE,14,0.0,0.0,64,0.00,,,0.00,oem by Ross Wheeler,2013-02-07 12:25:00,
2013-02-07 07:30:00,23.4,12.0,30.45,NNE,14,0.0,0.0,63,0.00,,,0.00,oem by Ross Wheeler,2013-02-07 12:30:00,
2013-02-07 07:40:00,23.7,13.0,30.46,NNE,14,0.0,0.0,63,0.00,,,0.00,oem by Ross Wheeler,2013-02-07 12:40:00,
2013-02-07 07:45:00,23.9,12.0,30.46,NNE,14,0.0,0.0,62,0.00,,,0.00,oem by Ross Wheeler,2013-02-07 12:45:00,
2013-02-07 07:55:00,24.3,12.0,30.47,NNE,14,0.0,0.0,61,0.00,,,0.00,oem by Ross Wheeler,2013-02-07 12:55:00,
2013-02-07 08:00:00,24.5,12.0,30.47,NNE,14,0.0,0.0,59,0.00,,,0.00,oem by Ross Wheeler,2013-02-07 13:00:00,
2013-02-07 08:10:00,24.9,12.0,30.47,NNE,14,2.0,0.0,58,0.00,,,0.00,oem by Ross Wheeler,2013-02-07 13:10:00,
2013-02-07 08:15:00,25.2,11.0,30.47,NNE,14,0.0,0.0,55,0.00,,,0.00,oem by Ross Wheeler,2013-02-07 13:15:00,
2013-02-07 08:25:00,25.6,10.0,30.47,NNE,14,0.0,0.0,51,0.00,,,0.00,oem by Ross Wheeler,2013-02-07 13:25:00,
2013-02-07 08:30:00,25.8,9.0,30.47,NNE,14,0.0,0.0,50,0.00,,,0.00,oem by Ross Wheeler,2013-02-07 13:30:00,
2013-02-07 08:40:00,26.4,10.0,30.48,NNE,14,0.0,0.0,51,0.00,,,0.00,oem by Ross Wheeler,2013-02-07 13:40:00,
2013-02-07 08:45:00,26.5,10.0,30.48,NNE,14,0.0,0.0,50,0.00,,,0.00,oem by Ross Wheeler,2013-02-07 13:45:00,
2013-02-07 08:55:00,27.1,10.0,30.47,NNE,14,0.0,0.0,49,0.00,,,0.00,oem by Ross Wheeler,2013-02-07 13:55:00,
2013-02-07 09:00:00,27.3,10.0,30.47,NNE,14,1.0,0.0,48,0.00,,,0.00,oem by Ross Wheeler,2013-02-07 14:00:00,
2013-02-07 09:10:00,27.7,10.0,30.47,NNE,14,0.0,0.0,48,0.00,,,0.00,oem by Ross Wheeler,2013-02-07 14:10:00,
2013-02-07 09:15:00,28.0,11.0,30.47,NNE,14,1.0,0.0,50,0.00,,,0.00,oem by Ross Wheeler,2013-02-07 14:15:00,
2013-02-07 09:25:00,28.3,11.0,30.47,NNE,14,0.0,0.0,48,0.00,,,0.00,oem by Ross Wheeler,2013-02-07 14:25:00,
2013-02-07 09:30:00,28.5,10.0,30.47,NNE,14,0.0,0.0,47,0.00,,,0.00,oem by Ross Wheeler,2013-02-07 14:30:00,
2013-02-07 09:40:00,28.7,10.0,30.47,NNE,17,2.0,0.0,46,0.00,,,0.00,oem by Ross Wheeler,2013-02-07 14:40:00,
2013-02-07 09:45:00,28.7,11.0,30.47,NNE,17,0.0,0.0,47,0.00,,,0.00,oem by Ross Wheeler,2013-02-07 14:45:00,
2013-02-07 09:55:00,29.0,12.0,30.47,NNE,18,1.0,0.0,49,0.00,,,0.00,oem by Ross Wheeler,2013-02-07 14:55:00,
2013-02-07 10:00:00,29.2,12.0,30.47,NNE,18,1.0,0.0,48,0.00,,,0.00,oem by Ross Wheeler,2013-02-07 15:00:00,
2013-02-07 10:10:00,29.3,12.0,30.47,NNE,24,3.0,0.0,48,0.00,,,0.00,oem by Ross Wheeler,2013-02-07 15:10:00,
2013-02-07 10:15:00,29.5,12.0,30.47,NNE,24,1.0,0.0,48,0.00,,,0.00,oem by Ross Wheeler,2013-02-07 15:15:00,
2013-02-07 10:25:00,29.9,12.0,30.48,NNE,24,4.0,0.0,47,0.00,,,0.00,oem by Ross Wheeler,2013-02-07 15:25:00,
2013-02-07 10:30:00,30.1,12.0,30.48,NNE,32,2.0,0.0,47,0.00,,,0.00,oem by Ross Wheeler,2013-02-07 15:30:00,
2013-02-07 10:40:00,30.4,12.0,30.48,NNE,20,2.0,0.0,46,0.00,,,0.00,oem by Ross Wheeler,2013-02-07 15:40:00,
2013-02-07 10:45:00,30.5,12.0,30.48,NNE,31,2.0,0.0,47,0.00,,,0.00,oem by Ross Wheeler,2013-02-07 15:45:00,
2013-02-07 10:55:00,31.0,13.0,30.48,NNE,30,2.0,0.0,47,0.00,,,0.00,oem by Ross Wheeler,2013-02-07 15:55:00,
2013-02-07 11:00:00,31.1,12.0,30.48,NNE,27,4.0,0.0,46,0.00,,,0.00,oem by Ross Wheeler,2013-02-07 16:00:00,
2013-02-07 11:10:00,31.4,13.0,30.49,NNE,21,0.0,0.0,46,0.00,,,0.00,oem by Ross Wheeler,2013-02-07 16:10:00,
2013-02-07 11:15:00,31.6,13.0,30.49,NNE,21,1.0,0.0,46,0.00,,,0.00,oem by Ross Wheeler,2013-02-07 16:15:00,
2013-02-07 11:25:00,31.7,13.0,30.48,NNE,24,1.0,0.0,46,0.00,,,0.00,oem by Ross Wheeler,2013-02-07 16:25:00,
2013-02-07 11:30:00,31.7,12.0,30.48,NNE,24,1.0,0.0,45,0.00,,,0.00,oem by Ross Wheeler,2013-02-07 16:30:00,
2013-02-07 11:40:00,31.7,12.0,30.47,ENE,78,2.0,0.0,45,0.00,,,0.00,oem by Ross Wheeler,2013-02-07 16:40:00,
2013-02-07 11:45:00,31.9,13.0,30.47,East,92,0.0,0.0,45,0.00,,,0.00,oem by Ross Wheeler,2013-02-07 16:45:00,
2013-02-07 11:55:00,32.1,12.0,30.46,East,83,1.0,0.0,44,0.00,,,0.00,oem by Ross Wheeler,2013-02-07 16:55:00,
2013-02-07 12:00:00,32.3,12.0,30.46,East,83,2.0,0.0,44,0.00,,,0.00,oem by Ross Wheeler,2013-02-07 17:00:00,
2013-02-07 12:10:00,32.3,12.0,30.46,ESE,123,2.0,0.0,44,0.00,,,0.00,oem by Ross Wheeler,2013-02-07 17:10:00,
2013-02-07 12:15:00,32.1,13.0,30.46,SSE,147,2.0,0.0,46,0.00,,,0.00,oem by Ross Wheeler,2013-02-07 17:15:00,
2013-02-07 12:25:00,32.0,13.0,30.46,SSW,207,2.0,0.0,46,0.00,,,0.00,oem by Ross Wheeler,2013-02-07 17:25:00,
2013-02-07 12:30:00,32.3,13.0,30.46,SE,126,1.0,0.0,46,0.00,,,0.00,oem by Ross Wheeler,2013-02-07 17:30:00,
2013-02-07 12:40:00,32.0,13.0,30.45,SE,140,2.0,0.0,46,0.00,,,0.00,oem by Ross Wheeler,2013-02-07 17:40:00,
2013-02-07 12:45:00,31.9,14.0,30.45,SSE,151,5.0,0.0,47,0.00,,,0.00,oem by Ross Wheeler,2013-02-07 17:45:00,
2013-02-07 12:55:00,32.0,14.0,30.44,SE,135,3.0,0.0,47,0.00,,,0.00,oem by Ross Wheeler,2013-02-07 17:55:00,
2013-02-07 13:00:00,31.9,13.0,30.44,SE,143,1.0,0.0,46,0.00,,,0.00,oem by Ross Wheeler,2013-02-07 18:00:00,
2013-02-07 13:10:00,31.9,14.0,30.44,ESE,102,3.0,0.0,47,0.00,,,0.00,oem by Ross Wheeler,2013-02-07 18:10:00,
2013-02-07 13:15:00,31.9,12.0,30.44,SE,124,1.0,0.0,44,0.00,,,0.00,oem by Ross Wheeler,2013-02-07 18:15:00,
2013-02-07 13:25:00,31.4,12.0,30.44,ESE,120,3.0,0.0,45,0.00,,,0.00,oem by Ross Wheeler,2013-02-07 18:25:00,
2013-02-07 13:30:00,31.4,12.0,30.44,East,99,2.0,0.0,45,0.00,,,0.00,oem by Ross Wheeler,2013-02-07 18:30:00,
2013-02-07 13:40:00,31.9,13.0,30.44,SE,144,3.0,0.0,45,0.00,,,0.00,oem by Ross Wheeler,2013-02-07 18:40:00,
2013-02-07 13:45:00,31.9,13.0,30.44,ESE,119,2.0,0.0,45,0.00,,,0.00,oem by Ross Wheeler,2013-02-07 18:45:00,
2013-02-07 13:55:00,31.7,12.0,30.43,East,100,2.0,0.0,45,0.00,,,0.00,oem by Ross Wheeler,2013-02-07 18:55:00,
2013-02-07 14:00:00,31.9,12.0,30.43,ESE,113,1.0,0.0,44,0.00,,,0.00,oem by Ross Wheeler,2013-02-07 19:00:00,
2013-02-07 14:10:00,31.7,12.0,30.42,ENE,61,1.0,0.0,45,0.00,,,0.00,oem by Ross Wheeler,2013-02-07 19:10:00,
2013-02-07 14:15:00,31.7,12.0,30.42,East,80,2.0,0.0,45,0.00,,,0.00,oem by Ross Wheeler,2013-02-07 19:15:00,
2013-02-07 14:25:00,31.4,12.0,30.42,East,97,3.0,0.0,45,0.00,,,0.00,oem by Ross Wheeler,2013-02-07 19:25:00,
2013-02-07 14:30:00,31.4,12.0,30.42,ESE,110,5.0,0.0,45,0.00,,,0.00,oem by Ross Wheeler,2013-02-07 19:30:00,
2013-02-07 14:40:00,31.4,12.0,30.42,ESE,110,1.0,0.0,45,0.00,,,0.00,oem by Ross Wheeler,2013-02-07 19:40:00,
2013-02-07 14:45:00,31.4,13.0,30.42,SE,130,2.0,0.0,46,0.00,,,0.00,oem by Ross Wheeler,2013-02-07 19:45:00,
2013-02-07 14:55:00,31.6,13.0,30.42,ESE,116,0.0,0.0,46,0.00,,,0.00,oem by Ross Wheeler,2013-02-07 19:55:00,
2013-02-07 15:00:00,31.6,12.0,30.42,East,92,2.0,0.0,45,0.00,,,0.00,oem by Ross Wheeler,2013-02-07 20:00:00,
2013-02-07 15:10:00,31.4,13.0,30.42,East,79,2.0,0.0,46,0.00,,,0.00,oem by Ross Wheeler,2013-02-07 20:10:00,
2013-02-07 15:15:00,31.4,13.0,30.42,East,86,1.0,0.0,46,0.00,,,0.00,oem by Ross Wheeler,2013-02-07 20:15:00,
2013-02-07 15:25:00,31.4,13.0,30.41,East,92,3.0,0.0,46,0.00,,,0.00,oem by Ross Wheeler,2013-02-07 20:25:00,
2013-02-07 15:30:00,31.3,13.0,30.41,East,97,3.0,0.0,46,0.00,,,0.00,oem by Ross Wheeler,2013-02-07 20:30:00,
2013-02-07 15:40:00,31.3,14.0,30.41,ESE,104,3.0,0.0,48,0.00,,,0.00,oem by Ross Wheeler,2013-02-07 20:40:00,
2013-02-07 15:45:00,31.3,13.0,30.41,ESE,119,2.0,0.0,47,0.00,,,0.00,oem by Ross Wheeler,2013-02-07 20:45:00,
2013-02-07 15:55:00,31.3,13.0,30.40,East,79,2.0,0.0,47,0.00,,,0.00,oem by Ross Wheeler,2013-02-07 20:55:00,
2013-02-07 16:00:00,31.1,13.0,30.40,ENE,76,2.0,0.0,47,0.00,,,0.00,oem by Ross Wheeler,2013-02-07 21:00:00,
2013-02-07 16:10:00,31.1,12.0,30.40,East,90,3.0,0.0,46,0.00,,,0.00,oem by Ross Wheeler,2013-02-07 21:10:00,
2013-02-07 16:15:00,31.0,12.0,30.40,East,100,2.0,0.0,45,0.00,,,0.00,oem by Ross Wheeler,2013-02-07 21:15:00,
2013-02-07 16:25:00,31.0,12.0,30.39,ESE,102,1.0,0.0,45,0.00,,,0.00,oem by Ross Wheeler,2013-02-07 21:25:00,
2013-02-07 16:30:00,31.0,12.0,30.39,East,97,2.0,0.0,45,0.00,,,0.00,oem by Ross Wheeler,2013-02-07 21:30:00,
2013-02-07 16:40:00,31.0,12.0,30.39,ENE,71,2.0,0.0,45,0.00,,,0.00,oem by Ross Wheeler,2013-02-07 21:40:00,
2013-02-07 16:45:00,30.8,12.0,30.39,ENE,69,2.0,0.0,45,0.00,,,0.00,oem by Ross Wheeler,2013-02-07 21:45:00,
2013-02-07 16:55:00,30.8,12.0,30.39,ESE,120,0.0,0.0,46,0.00,,,0.00,oem by Ross Wheeler,2013-02-07 21:55:00,
2013-02-07 17:00:00,30.8,12.0,30.39,East,83,3.0,0.0,45,0.00,,,0.00,oem by Ross Wheeler,2013-02-07 22:00:00,
2013-02-07 17:10:00,30.8,12.0,30.38,East,100,6.0,0.0,46,0.00,,,0.00,oem by Ross Wheeler,2013-02-07 22:10:00,
2013-02-07 17:15:00,30.8,13.0,30.38,ENE,66,5.0,0.0,48,0.00,,,0.00,oem by Ross Wheeler,2013-02-07 22:15:00,
2013-02-07 17:25:00,30.7,14.0,30.38,East,80,3.0,0.0,50,0.00,,,0.00,oem by Ross Wheeler,2013-02-07 22:25:00,
2013-02-07 17:30:00,30.5,15.0,30.38,ENE,72,3.0,0.0,52,0.00,,,0.00,oem by Ross Wheeler,2013-02-07 22:30:00,
2013-02-07 17:40:00,30.5,16.0,30.38,East,96,3.0,0.0,54,0.00,,,0.00,oem by Ross Wheeler,2013-02-07 22:40:00,
2013-02-07 17:45:00,30.5,16.0,30.38,East,83,1.0,0.0,55,0.00,,,0.00,oem by Ross Wheeler,2013-02-07 22:45:00,
2013-02-07 17:55:00,30.4,17.0,30.38,East,89,2.0,0.0,57,0.00,,,0.00,oem by Ross Wheeler,2013-02-07 22:55:00,
2013-02-07 18:00:00,30.4,17.0,30.38,ENE,78,0.0,0.0,57,0.00,,,0.00,oem by Ross Wheeler,2013-02-07 23:00:00,
2013-02-07 18:10:00,30.4,17.0,30.38,ENE,65,0.0,0.0,57,0.00,,,0.00,oem by Ross Wheeler,2013-02-07 23:10:00,
2013-02-07 18:15:00,30.2,16.0,30.38,ENE,65,1.0,0.0,56,0.00,,,0.00,oem by Ross Wheeler,2013-02-07 23:15:00,
2013-02-07 18:25:00,30.2,16.0,30.38,East,89,0.0,0.0,57,0.00,,,0.00,oem by Ross Wheeler,2013-02-07 23:25:00,
2013-02-07 18:30:00,30.2,17.0,30.38,ENE,71,1.0,0.0,58,0.00,,,0.00,oem by Ross Wheeler,2013-02-07 23:30:00,
2013-02-07 18:40:00,30.2,17.0,30.39,ENE,71,2.0,0.0,59,0.00,,,0.00,oem by Ross Wheeler,2013-02-07 23:40:00,
2013-02-07 18:45:00,30.1,18.0,30.39,ENE,75,3.0,0.0,60,0.00,,,0.00,oem by Ross Wheeler,2013-02-07 23:45:00,
2013-02-07 18:55:00,30.1,18.0,30.39,NE,42,2.0,0.0,61,0.00,,,0.00,oem by Ross Wheeler,2013-02-07 23:55:00,
2013-02-07 19:00:00,30.1,18.0,30.39,NE,42,2.0,0.0,61,0.00,,,0.00,oem by Ross Wheeler,2013-02-08 00:00:00,
2013-02-07 19:10:00,30.1,18.0,30.39,ENE,61,1.0,0.0,62,0.00,,,0.00,oem by Ross Wheeler,2013-02-08 00:10:00,
2013-02-07 19:15:00,30.2,18.0,30.39,NE,52,2.0,0.0,62,0.00,,,0.00,oem by Ross Wheeler,2013-02-08 00:15:00,
2013-02-07 19:25:00,30.4,19.0,30.39,ENE,58,1.0,0.0,63,0.00,,,0.00,oem by Ross Wheeler,2013-02-08 00:25:00,
2013-02-07 19:30:00,30.5,19.0,30.39,ENE,59,1.0,0.0,63,0.00,,,0.00,oem by Ross Wheeler,2013-02-08 00:30:00,
2013-02-07 19:40:00,30.5,19.0,30.39,East,89,2.0,0.0,63,0.00,,,0.00,oem by Ross Wheeler,2013-02-08 00:40:00,
2013-02-07 19:45:00,30.7,19.0,30.39,ENE,62,2.0,0.0,63,0.00,,,0.00,oem by Ross Wheeler,2013-02-08 00:45:00,
2013-02-07 19:55:00,30.7,20.0,30.39,ENE,65,1.0,0.0,64,0.00,,,0.00,oem by Ross Wheeler,2013-02-08 00:55:00,
2013-02-07 20:00:00,30.7,20.0,30.39,ENE,76,1.0,0.0,64,0.00,,,0.00,oem by Ross Wheeler,2013-02-08 01:00:00,
2013-02-07 20:10:00,30.5,20.0,30.38,ENE,72,1.0,0.0,65,0.00,,,0.00,oem by Ross Wheeler,2013-02-08 01:10:00,
2013-02-07 20:15:00,30.5,20.0,30.38,ENE,63,2.0,0.0,65,0.00,,,0.00,oem by Ross Wheeler,2013-02-08 01:15:00,
2013-02-07 20:25:00,30.7,20.0,30.38,ENE,66,0.0,0.0,65,0.00,,,0.00,oem by Ross Wheeler,2013-02-08 01:25:00,
2013-02-07 20:30:00,30.7,20.0,30.38,ENE,62,3.0,0.0,65,0.00,,,0.00,oem by Ross Wheeler,2013-02-08 01:30:00,
2013-02-07 20:40:00,31.0,20.0,30.38,ENE,58,0.0,0.0,65,0.00,,,0.00,oem by Ross Wheeler,2013-02-08 01:40:00,
2013-02-07 20:45:00,31.1,21.0,30.38,ENE,61,1.0,0.0,65,0.00,,,0.00,oem by Ross Wheeler,2013-02-08 01:45:00,
2013-02-07 20:55:00,31.1,21.0,30.37,ENE,65,1.0,0.0,65,0.00,,,0.00,oem by Ross Wheeler,2013-02-08 01:55:00,
2013-02-07 21:00:00,31.3,21.0,30.37,ENE,65,5.0,0.0,66,0.00,,,0.00,oem by Ross Wheeler,2013-02-08 02:00:00,
2013-02-07 21:10:00,31.4,21.0,30.36,NE,52,2.0,0.0,66,0.00,,,0.00,oem by Ross Wheeler,2013-02-08 02:10:00,
2013-02-07 21:15:00,31.4,21.0,30.36,ENE,63,2.0,0.0,66,0.00,,,0.00,oem by Ross Wheeler,2013-02-08 02:15:00,
2013-02-07 21:25:00,31.6,22.0,30.36,ENE,59,1.0,0.0,67,0.00,,,0.00,oem by Ross Wheeler,2013-02-08 02:25:00,
2013-02-07 21:30:00,31.6,22.0,30.36,ENE,61,5.0,0.0,67,0.00,,,0.00,oem by Ross Wheeler,2013-02-08 02:30:00,
2013-02-07 21:40:00,31.7,22.0,30.35,ENE,58,0.0,0.0,68,0.00,,,0.00,oem by Ross Wheeler,2013-02-08 02:40:00,
2013-02-07 21:45:00,31.7,22.0,30.35,ENE,73,2.0,0.0,68,0.00,,,0.00,oem by Ross Wheeler,2013-02-08 02:45:00,
2013-02-07 21:55:00,31.9,23.0,30.35,NNE,31,1.0,0.0,69,0.00,,,0.00,oem by Ross Wheeler,2013-02-08 02:55:00,
2013-02-07 22:00:00,31.9,23.0,30.35,NE,35,2.0,0.0,69,0.00,,,0.00,oem by Ross Wheeler,2013-02-08 03:00:00,
2013-02-07 22:10:00,32.0,23.0,30.34,ENE,58,2.0,0.0,69,0.00,,,0.00,oem by Ross Wheeler,2013-02-08 03:10:00,
2013-02-07 22:15:00,32.0,23.0,30.34,NE,42,2.0,0.0,69,0.00,,,0.00,oem by Ross Wheeler,2013-02-08 03:15:00,
2013-02-07 22:25:00,32.1,23.0,30.34,NE,47,3.0,0.0,69,0.00,,,0.00,oem by Ross Wheeler,2013-02-08 03:25:00,
2013-02-07 22:30:00,32.1,23.0,30.34,NE,48,2.0,0.0,69,0.00,,,0.00,oem by Ross Wheeler,2013-02-08 03:30:00,
2013-02-07 22:40:00,32.1,23.0,30.33,NNE,20,1.0,0.0,69,0.00,,,0.00,oem by Ross Wheeler,2013-02-08 03:40:00,
2013-02-07 22:45:00,32.1,23.0,30.33,North,11,2.0,0.0,68,0.00,,,0.00,oem by Ross Wheeler,2013-02-08 03:45:00,
2013-02-07 22:55:00,32.0,22.0,30.33,NNE,13,3.0,0.0,67,0.00,,,0.00,oem by Ross Wheeler,2013-02-08 03:55:00,
2013-02-07 23:00:00,32.0,22.0,30.33,NNE,13,2.0,0.0,67,0.00,,,0.00,oem by Ross Wheeler,2013-02-08 04:00:00,
2013-02-07 23:10:00,31.9,22.0,30.32,North,11,1.0,0.0,66,0.00,,,0.00,oem by Ross Wheeler,2013-02-08 04:10:00,
2013-02-07 23:15:00,31.9,22.0,30.32,ENE,66,5.0,0.0,67,0.00,,,0.00,oem by Ross Wheeler,2013-02-08 04:15:00,
2013-02-07 23:25:00,31.9,22.0,30.31,ENE,68,2.0,0.0,67,0.00,,,0.00,oem by Ross Wheeler,2013-02-08 04:25:00,
2013-02-07 23:30:00,31.9,22.0,30.31,ENE,75,2.0,0.0,67,0.00,,,0.00,oem by Ross Wheeler,2013-02-08 04:30:00,
2013-02-07 23:40:00,31.9,22.0,30.30,NE,47,1.0,0.0,68,0.00,,,0.00,oem by Ross Wheeler,2013-02-08 04:40:00,
2013-02-07 23:45:00,31.9,22.0,30.30,NE,45,1.0,0.0,68,0.00,,,0.00,oem by Ross Wheeler,2013-02-08 04:45:00,
2013-02-07 23:55:00,32.0,23.0,30.29,NE,56,2.0,0.0,69,0.00,,,0.00,oem by Ross Wheeler,2013-02-08 04:55:00,